Change the Weather History Date:

Wednesday, January 22, 2014

  Actual Average Record
Temperature  
Mean Temperature 38 °F 41 °F  
Max Temperature 52 °F 49 °F 70 °F (1970)
Min Temperature 24 °F 33 °F 0 °F (1962)
Degree Days  
Heating Degree Days 27 24  
Month to date heating degree days 583 555  
Since 1 July heating degree days 2674 2321  
Cooling Degree Days 0 0  
Month to date cooling degree days 0 0  
Year to date cooling degree days 0 0  
Moisture  
Dew Point 26 °F    
Average Humidity 70    
Maximum Humidity 96    
Minimum Humidity 44    
Precipitation  
Precipitation T in 0.07 in 1.34 in (1972)
Month to date precipitation 0.53 1.84  
Year to date precipitation 0.53 1.84  
Snow  
Snow T in 0.10 in - ()
Month to date snowfall T 1.0  
Since 1 July snowfall 3.4 2.7  
Snow Depth 0.00 in    
Sea Level Pressure  
Sea Level Pressure 30.32 in    
Wind  
Wind Speed 1 mph (NNE)    
Max Wind Speed 7 mph    
Max Gust Speed 7 mph    
Visibility 3 miles    
Events Fog , Snow    
T = Trace of Precipitation, MM = Missing Value Source: NWS Daily Summary

Daily Weather History Graph

Daily Weather History Graph

Search for Another Location

Airport or City:

Trip Planner

Search our weather history database for the weather conditions in past years. The results will help you decide how hot, cold, wet, or windy it might be!

Date:

Astronomy

Jan. 22, 2014 Rise Set
Actual Time 7:33 AM PST 5:12 PM PST
Civil Twilight 7:03 AM PST 5:43 PM PST
Nautical Twilight 6:29 AM PST 6:17 PM PST
Astronomical Twilight 5:55 AM PST 6:51 PM PST
Moon 11:59 PM PST (1/22) 10:29 AM PST (1/22)
Length of Visible Light 10h 40m
Length of Day
9h 39m
Waning Gibbous, 64% of the Moon is Illuminated
Jan 22
Waning Gibbous
Jan 23
Last Quarter
Jan 30
New
Feb 6
First Quarter
Feb 14
Full

Hourly Weather History & Observations

Time (PST) Temp. Windchill Dew Point Humidity Pressure Visibility Wind Dir Wind Speed Gust Speed Precip Events Conditions
12:44 AM 27.0 °F - 26.1 °F 96% 30.36 in 2.5 mi Calm Calm - N/A   Partly Cloudy
12:48 AM 26.6 °F - 26.6 °F 100% 30.36 in 1.0 mi Calm Calm - N/A   Mist
12:50 AM 26.6 °F - 26.6 °F 100% 30.36 in 0.5 mi Calm Calm - N/A Fog Light Freezing Fog
12:53 AM 28.0 °F - 26.1 °F 92% 30.40 in 0.5 mi Calm Calm - N/A Fog Light Freezing Fog
12:58 AM 28.0 °F - 26.1 °F 92% 30.36 in 0.5 mi Calm Calm - N/A Fog Light Freezing Fog
1:27 AM 27.0 °F - 25.0 °F 92% 30.35 in 1.2 mi Calm Calm - N/A   Scattered Clouds
1:37 AM 27.0 °F - 25.0 °F 92% 30.35 in 0.8 mi Calm Calm - N/A   Mist
1:43 AM 27.0 °F - 25.0 °F 92% 30.35 in 1.0 mi Calm Calm - N/A   Clear
1:53 AM 26.1 °F - 24.1 °F 92% 30.38 in 0.8 mi Calm Calm - N/A   Clear
1:56 AM 27.0 °F - 24.1 °F 89% 30.35 in 1.0 mi Calm Calm - N/A   Mist
2:02 AM 26.1 °F - 24.1 °F 92% 30.35 in 2.0 mi Calm Calm - N/A   Scattered Clouds
2:06 AM 26.1 °F - 24.1 °F 92% 30.35 in 1.8 mi Calm Calm - N/A   Mostly Cloudy
2:12 AM 26.1 °F - 24.1 °F 92% 30.35 in 0.5 mi Calm Calm - N/A Fog Light Freezing Fog
2:21 AM 27.0 °F - 25.0 °F 92% 30.35 in 0.2 mi Calm Calm - N/A Fog Light Freezing Fog
2:51 AM 26.6 °F 22.6 °F 24.8 °F 93% 30.35 in 0.2 mi West 3.5 mph - N/A Fog Light Freezing Fog
2:53 AM 26.1 °F 21.9 °F 24.1 °F 92% 30.38 in 0.2 mi West 3.5 mph - N/A Fog Light Freezing Fog
2:57 AM 26.1 °F - 24.1 °F 92% 30.34 in 0.5 mi Calm Calm - N/A Fog Light Freezing Fog
3:28 AM 27.0 °F - 24.1 °F 89% 30.33 in 0.8 mi Calm Calm - N/A   Overcast
3:44 AM 26.1 °F - 25.0 °F 96% 30.33 in 0.2 mi Calm Calm - N/A Fog Light Freezing Fog
3:53 AM 26.1 °F 21.9 °F 25.0 °F 96% 30.36 in 0.2 mi SSE 3.5 mph - N/A Fog Light Freezing Fog
4:07 AM 26.1 °F 21.9 °F 24.1 °F 92% 30.33 in 0.2 mi SSE 3.5 mph - N/A Fog Light Freezing Fog
4:19 AM 26.1 °F - 24.1 °F 92% 30.33 in 0.5 mi Calm Calm - N/A Fog Light Freezing Fog
4:35 AM 26.1 °F - 24.1 °F 92% 30.32 in 0.5 mi Calm Calm - N/A Fog Light Freezing Fog
4:53 AM 26.1 °F - 25.0 °F 96% 30.35 in 0.5 mi Calm Calm - N/A Fog Light Freezing Fog
5:01 AM 26.1 °F - 25.0 °F 96% 30.32 in 0.2 mi Calm Calm - N/A Fog Light Freezing Fog
5:53 AM 25.0 °F - 21.9 °F 88% 30.36 in 0.2 mi Calm Calm - N/A Fog Light Freezing Fog
6:14 AM 24.1 °F - 23.0 °F 96% 30.33 in 0.2 mi Calm Calm - N/A Fog Light Freezing Fog
6:53 AM 25.0 °F - 23.0 °F 92% 30.37 in 0.2 mi Calm Calm - N/A Fog Light Freezing Fog
6:58 AM 25.0 °F - 23.0 °F 92% 30.33 in 0.5 mi Calm Calm - N/A Fog Light Freezing Fog
7:03 AM 25.0 °F - 23.0 °F 92% 30.33 in 0.2 mi Calm Calm - N/A Fog Light Freezing Fog
7:11 AM 25.0 °F - 23.0 °F 92% 30.33 in 0.2 mi Calm Calm - N/A Fog Light Freezing Fog
7:43 AM 24.1 °F 18.2 °F 21.9 °F 91% 30.34 in 0.2 mi North 4.6 mph - N/A Fog Light Freezing Fog
7:47 AM 24.8 °F 17.9 °F 21.2 °F 86% 30.34 in 0.2 mi North 5.8 mph - N/A Fog Light Freezing Fog
7:53 AM 24.1 °F 17.0 °F 21.9 °F 91% 30.39 in 0.2 mi North 5.8 mph - N/A Fog Light Freezing Fog
8:22 AM 25.0 °F - 21.9 °F 88% 30.34 in 0.2 mi Calm Calm - 0.00 in Fog , Snow Light Snow
8:35 AM 25.0 °F - 23.0 °F 92% 30.34 in 0.2 mi Calm Calm - 0.00 in Fog , Snow Light Snow
8:51 AM 26.6 °F - 23.0 °F 86% 30.33 in 0.5 mi Calm Calm - 0.00 in Fog Light Freezing Fog
8:53 AM 26.1 °F - 23.0 °F 88% 30.37 in 0.5 mi Calm Calm - 0.00 in Fog Light Freezing Fog
9:00 AM 26.1 °F - 23.0 °F 88% 30.33 in 0.2 mi Calm Calm - N/A Fog Light Freezing Fog
9:03 AM 26.1 °F - 23.0 °F 88% 30.33 in 0.5 mi Calm Calm - N/A Fog Light Freezing Fog
9:13 AM 26.1 °F - 24.1 °F 92% 30.33 in 0.2 mi Calm Calm - N/A Fog Light Freezing Fog
9:23 AM 27.0 °F 23.0 °F 24.1 °F 89% 30.34 in 0.2 mi North 3.5 mph - N/A Fog Light Freezing Fog
9:53 AM 27.0 °F 23.0 °F 25.0 °F 92% 30.38 in 0.2 mi North 3.5 mph - N/A Fog Light Freezing Fog
10:00 AM 28.0 °F 24.2 °F 25.0 °F 88% 30.33 in 0.2 mi North 3.5 mph - N/A Fog Light Freezing Fog
10:10 AM 28.0 °F 24.2 °F 26.1 °F 92% 30.33 in 0.2 mi North 3.5 mph - N/A Fog Light Freezing Fog
10:23 AM 28.9 °F - 27.0 °F 92% 30.33 in 0.5 mi Calm Calm - N/A Fog Light Freezing Fog
10:40 AM 30.0 °F - 28.0 °F 92% 30.32 in 1.0 mi Calm Calm - N/A   Overcast
10:53 AM 30.0 °F - 28.9 °F 96% 30.35 in 0.5 mi Calm Calm - N/A Fog Light Freezing Fog
11:05 AM 30.0 °F - 28.9 °F 96% 30.31 in 2.0 mi Calm Calm - N/A   Overcast
11:20 AM 32.0 °F - 30.0 °F 92% 30.29 in 3.0 mi Calm Calm - N/A   Scattered Clouds
11:53 AM 34.0 °F - 32.0 °F 92% 30.31 in 8.0 mi Calm Calm - N/A   Clear
12:53 PM 43.0 °F - 30.9 °F 62% 30.27 in 10.0 mi Calm Calm - N/A   Clear
1:53 PM 46.0 °F - 32.0 °F 58% 30.24 in 10.0 mi Calm Calm - N/A   Clear
2:53 PM 50.0 °F - 32.0 °F 50% 30.22 in 10.0 mi Calm Calm - N/A   Clear
3:53 PM 51.1 °F - 30.9 °F 46% 30.21 in 10.0 mi Calm Calm - N/A   Clear
4:53 PM 50.0 °F - 30.9 °F 48% 30.20 in 10.0 mi NE 3.5 mph - N/A   Clear
5:53 PM 44.1 °F - 32.0 °F 63% 30.20 in 10.0 mi Calm Calm - N/A   Scattered Clouds
6:53 PM 41.0 °F 39.0 °F 33.1 °F 73% 30.20 in 10.0 mi South 3.5 mph - N/A   Scattered Clouds
7:53 PM 37.9 °F - 30.0 °F 73% 30.21 in 9.0 mi Calm Calm - N/A   Scattered Clouds
8:53 PM 36.0 °F - 28.9 °F 76% 30.21 in 8.0 mi Calm Calm - N/A   Scattered Clouds
9:53 PM 33.1 °F - 28.0 °F 82% 30.22 in 9.0 mi Calm Calm - N/A   Clear
10:53 PM 32.0 °F 28.7 °F 28.0 °F 85% 30.23 in 6.0 mi ESE 3.5 mph - N/A   Clear
11:53 PM 30.9 °F 27.5 °F 27.0 °F 85% 30.22 in 6.0 mi South 3.5 mph - N/A   Clear